Skip Page Navigation
NASA JPL Caltech
NASA Logo - Jet Propulsion Laboratory + View the NASA Portal
+ Near-Earth Object (NEO) Program
Search JPL
JPL Home Earth Solar System Stars & Galaxies Technology
JPL Solar System Dynamics
BODIES ORBITS EPHEMERIDES TOOLS PHYSICAL DATA DISCOVERY FAQ SITE MAP
JPL Small-Body Database Browser
Search: [ help ]  
(2007 TG422)
Classification: TransNeptunian Object          SPK-ID: 3404090
Ephemeris | Orbit Diagram | Orbital Elements | Physical Parameters ]

[ show orbit diagram ]
Orbital Elements at Epoch 2456800.5 (2014-May-23.0) TDB
Reference: JPL 1 (heliocentric ecliptic J2000)
 Element Value Uncertainty (1-sigma)   Units 
e .9331012578702572 0.00073542  
a 531.9002265400317 5.8897 AU
q 35.58345609405335 0.0036222 AU
i 18.5795002556071 0.0003414 deg
node 112.9815539071188 0.0024312 deg
peri 285.8371270892529 0.04084 deg
M .2496218597828512 0.0038434 deg
tp 2453693.624834835111
(2005-Nov-19.12483484)
6.2708 JED
period 4480677.535342192
12267.43
74422
203.8
d
yr
n 8.034499183671037E-5 1.3345e-06 deg/d
Q 1028.21699698601 11.385 AU
  Orbit Determination Parameters
   # obs. used (total)      34  
   data-arc span      1956 days (5.36 yr)  
   first obs. used      2007-09-05  
   last obs. used      2013-01-12  
   planetary ephem.      DE431  
   SB-pert. ephem.      SB431-BIG16  
   condition code      2  
   fit RMS      .12994  
   data source      ORB  
   producer      Otto Matic  
   solution date      2013-Aug-13 12:14:58  

Additional Information
 Earth MOID = 34.6395 AU 
 T_jup = 6.903 
[ show covariance matrix ]

Ephemeris | Orbit Diagram | Orbital Elements | Physical Parameters ]

Physical Parameter Table
Parameter Symbol Value Units Sigma Reference Notes
absolute magnitude H 6.2 mag n/a MPO252047  
Ephemeris | Orbit Diagram | Orbital Elements | Physical Parameters ]
ABOUT SSD CREDITS/AWARDS PRIVACY/COPYRIGHT GLOSSARY LINKS
FirstGov 2014-Apr-25 09:53 UT
(server date/time)  
NASA Home Page
Site Manager:   Donald K. Yeomans
Webmaster  Alan B. Chamberlin